CAPE
109 148 202 601 420 439 678 517 497 646 922 1117 1117 1023 999 1149 1259 1243 1036 1294 1031 789 589 844 608 910 1218 1125 1106 1025 910 571 1116 1261 1411 1637 1620 1594 1706 1699 1555 1615 1753
64 122 645 1057 995 976 986 1041 1064 771 731 748 993 1137 1064 1090 1233 1282 1267 1011 681 459 894 628 1197 1409 1119 1058 1064 901 1010 1237 1311 1273 1324 1373 1448 1431 1483 1362 1309 1481 1474
49 137 515 877 976 936 1062 1103 1189 1400 1541 1584 1470 1263 1157 1313 1342 1291 1177 1337 958 1056 581 537 746 758 981 1025 1069 1041 1007 1235 1276 1281 857 979 1258 1141 1208 1081 1043 992 1440
50 153 653 1016 1068 989 1098 1065 1272 1388 1478 1509 1392 996 1022 1071 739 1069 919 643 495 790 641 475 533 693 736 645 923 997 942 1041 1238 1274 719 878 1155 1184 1170 1344 1141 1286 1154
129 203 734 1063 1190 1349 1229 1111 1267 1419 1452 1446 1480 1353 1434 666 319 741 746 685 1168 747 644 931 1009 852 782 643 621 798 1034 1258 1322 806 390 517 709 1130 1274 964 654 450 753
127 135 863 1189 1379 1465 1397 1259 1306 1373 1363 1555 1482 1471 630 449 990 1322 1276 1254 1229 1230 706 701 709 744 476 180 277 493 567 730 1040 862 436 49 343 877 1100 1289 1263 418 90
61 177 620 1179 1300 1520 1519 1509 1525 1444 1495 1532 1436 901 605 539 1078 1349 829 1004 1032 925 1048 625 619 472 477 503 501 453 586 997 746 859 554 97 26 740 1118 1051 1004 374 263
84 135 26 303 1203 1296 1255 1262 1290 1348 1461 1626 1550 1361 1184 1108 985 839 1017 1382 1370 1260 1228 988 732 638 370 334 327 364 520 1326 743 490 532 249 42 711 1668 1357 915 618 651
10 22 117 414 1087 1306 1080 1357 1362 1394 1285 789 772 1138 1266 1159 897 1094 1606 1320 1277 1240 1129 1010 1011 1059 601 358 388 294 454 907 422 304 184 64 23 683 1671 1280 1136 932 1090
17 49 169 465 646 945 1139 1038 1231 1203 1161 1180 1138 996 695 765 1319 1155 734 986 1169 983 852 992 854 971 516 209 257 275 292 600 429 488 331 240 30 249 1020 956 1032 595 768
1 28 94 153 468 370 954 1014 1064 1329 1157 1231 1292 1536 845 694 459 323 267 207 393 439 395 614 649 599 693 615 627 568 680 333 384 527 355 263 118 62 262 698 923 868 396
3 30 54 89 196 242 217 242 527 754 494 414 409 448 534 766 646 826 815 1049 1030 1291 1475 1438 1454 1262 957 1001 873 583 202 151 336 360 604 309 151 229 272 511 577 557 581
2 5 1 9 51 63 14 33 233 594 650 680 669 617 718 581 529 499 491 509 500 717 838 902 970 831 838 912 866 459 254 250 152 107 377 588 485 399 329 434 447 384 393
0 0 0 1 0 10 3 1 42 253 323 322 544 863 896 746 628 664 534 764 595 740 883 990 840 831 989 1018 789 652 538 373 218 182 437 779 707 737 727 602 760 763 426
0 0 0 0 1 0 2 0 1 3 37 116 258 475 797 739 319 401 978 814 659 589 786 987 920 932 911 858 784 787 766 743 646 248 336 661 838 580 641 636 621 850 733
0 0 0 0 0 0 1 0 0 0 15 77 262 554 753 751 788 463 597 777 689 586 610 823 505 581 585 522 511 482 638 791 844 742 513 366 331 471 578 586 644 707 716
0 0 0 0 0 0 0 0 0 0 0 9 151 408 575 834 868 832 762 785 390 545 418 640 448 218 98 53 61 96 164 591 878 918 829 795 746 659 692 741 717 760 727
0 0 0 0 0 0 0 0 0 0 0 0 20 83 519 1106 1180 937 746 810 661 744 533 381 211 6 0 0 0 0 2 93 496 651 685 757 742 709 678 778 800 836 720
13 0 0 0 0 0 0 0 0 0 0 0 7 407 1145 1073 1147 1026 885 881 894 814 484 150 63 0 42 4 7 43 12 68 193 446 607 742 790 812 757 675 724 940 997
59 3 0 0 0 0 0 0 0 0 0 0 128 964 1225 1021 1110 888 838 911 681 789 516 172 245 200 206 198 79 13 27 40 120 344 514 705 734 603 652 658 546 518 613
26 2 0 0 0 0 0 0 0 0 0 105 490 868 744 651 736 563 239 188 334 427 557 571 416 447 400 91 35 25 19 27 86 225 31 218 59 284 500 503 373 419 487
17 0 0 0 0 0 0 0 0 8 25 123 551 757 627 525 503 369 121 5 0 0 15 46 837 675 323 28 282 255 0 0 65 23 97 24 74 199 35 175 295 344 496
14 0 0 0 0 0 0 0 53 180 336 453 804 701 456 515 438 196 48 0 0 0 0 12 270 716 610 415 474 605 59 0 96 50 83 76 168 149 177 255 276 303 338
53 20 0 0 0 0 0 0 94 200 374 615 912 902 748 510 346 180 0 0 0 0 22 83 239 868 682 465 477 600 614 383 37 3 43 52 52 19 145 150 215 307 287
48 25 16 1 0 0 0 55 237 366 595 747 899 1049 908 914 613 251 88 94 94 73 150 245 433 604 469 202 283 360 214 144 53 0 0 0 63 127 188 117 259 316 357
97 74 81 115 56 37 78 129 246 421 583 738 869 951 1007 1201 1021 595 510 364 359 402 332 373 484 515 482 312 466 104 18 24 8 4 0 1 0 82 256 309 140 138 240
CIN
-0 -2 -6 -3 -23 -15 -10 -13 -14 -5 -3 -2 -0 -0 -0 -0 -0 -0 -0 -0 -0 -0 -4 -0 -4 -1 -0 -0 -5 -23 -3 -5 -0 -2 -0 -0 -0 -0 -0 -6 -16 -17 -9
-10 -1 -2 -0 -0 -0 -0 -0 -0 -5 -7 -9 -1 -0 -0 -0 -0 -0 -0 -0 -1 -5 -0 -2 -0 -0 -0 -0 -0 -36 -12 -0 -0 -0 -0 -0 -0 -0 -3 -22 -32 -20 -20
-4 -5 -2 -0 -0 -1 -0 -0 -1 -1 -0 -0 -0 -0 -0 -0 -0 -1 -0 -1 -0 -0 -0 -6 -1 -1 -0 -0 -0 -18 -24 -0 -0 -1 -11 -8 -0 -4 -5 -18 -28 -37 -9
-12 -5 -1 -0 -0 -0 -0 -1 -1 -0 -0 -0 -0 -2 -1 -0 -2 -0 -0 -0 -0 -0 -1 -12 -6 -1 -2 -8 -0 -5 -18 -10 -0 -1 -21 -5 -0 -0 -2 -0 -5 -1 -13
-5 -18 -0 -0 -0 -0 -0 -1 -0 -0 -0 -0 -0 -0 -0 -9 -30 -2 -2 -1 -0 -0 -0 -0 -0 -0 -2 -7 -8 -6 -4 -2 -0 -13 -33 -25 -4 -0 -0 -5 -34 -56 -21
-7 -7 -1 -0 -0 -0 -0 -0 -0 -0 -2 -0 -0 -0 -11 -30 -0 -0 -0 -0 -0 -0 -0 -0 -1 -5 -14 -36 -24 -16 -12 -22 -10 -18 -34 -123 -29 -1 -0 -0 -0 -52 -136
-7 -5 -4 -1 -0 -0 -0 -0 -0 -1 -0 -0 -0 -2 -11 -15 -0 -0 -2 -0 -0 -0 -0 -12 -9 -15 -21 -23 -21 -27 -28 -17 -30 -31 -47 -118 -141 -7 -0 -0 -0 -41 -70
-11 -13 -28 -10 -1 -0 -0 -0 -0 -0 -0 -0 -0 -0 -2 -0 -0 -1 -5 -0 -0 -0 -0 -5 -9 -14 -26 -31 -36 -41 -40 -21 -54 -54 -58 -84 -165 -25 -0 -0 -1 -13 -14
-18 -32 -12 -5 -0 -0 -1 -0 -0 -0 -0 -13 -16 -9 -2 -1 -2 -1 -0 -1 -3 -6 -4 -10 -9 -7 -26 -35 -48 -59 -44 -30 -63 -86 -88 -146 -198 -44 -0 -0 -0 -1 -0
-29 -19 -10 -11 -9 -5 -3 -3 -0 -0 -13 -2 -1 -4 -19 -16 -0 -7 -21 -13 -7 -20 -27 -12 -21 -16 -52 -60 -50 -63 -58 -41 -63 -67 -90 -93 -175 -88 -19 -9 -3 -25 -7
-17 -30 -42 -35 -20 -20 -4 -7 -9 -0 -14 -7 -5 -0 -13 -32 -44 -64 -68 -71 -42 -40 -49 -38 -36 -47 -29 -28 -38 -53 -45 -61 -62 -87 -94 -98 -144 -152 -87 -41 -12 -9 -47
-44 -44 -55 -56 -43 -46 -76 -91 -57 -34 -70 -67 -47 -45 -64 -33 -40 -35 -28 -22 -27 -20 -16 -23 -24 -31 -41 -43 -44 -54 -79 -87 -67 -74 -84 -95 -113 -98 -82 -61 -50 -32 -26
-110 -91 -13 -120 -105 -103 -151 -176 -104 -47 -51 -41 -36 -52 -46 -47 -51 -53 -63 -72 -66 -56 -55 -57 -52 -60 -63 -58 -49 -59 -66 -68 -102 -113 -79 -74 -76 -73 -79 -64 -62 -70 -65
-0 -0 -0 -60 -0 -173 -191 -71 -188 -120 -84 -100 -60 -50 -45 -47 -44 -48 -47 -47 -58 -53 -48 -53 -63 -62 -58 -57 -60 -59 -60 -62 -74 -88 -65 -53 -54 -52 -58 -58 -45 -46 -71
-0 -0 -0 -0 -52 -18 -247 -0 -207 -178 -208 -171 -112 -86 -61 -62 -92 -89 -41 -43 -49 -67 -56 -49 -52 -54 -56 -69 -69 -55 -56 -52 -48 -91 -75 -46 -38 -40 -45 -42 -41 -41 -37
-0 -0 -0 -0 -0 -57 -182 -0 -0 -0 -260 -183 -137 -119 -88 -96 -81 -100 -94 -77 -86 -103 -101 -65 -84 -85 -85 -92 -97 -100 -91 -87 -82 -76 -80 -90 -80 -48 -35 -29 -28 -32 -33
-0 -0 -0 -0 -0 -0 -0 -0 -0 -0 -0 -239 -173 -144 -122 -98 -96 -88 -85 -87 -120 -127 -137 -108 -112 -147 -170 -196 -203 -195 -180 -106 -86 -77 -74 -71 -56 -53 -35 -30 -18 -23 -30
-0 -0 -0 -0 -0 -0 -0 -0 -0 -0 -0 -0 -228 -208 -125 -76 -72 -72 -61 -68 -105 -89 -118 -121 -130 -110 -0 -0 -0 -0 -90 -189 -123 -98 -94 -86 -88 -90 -75 -52 -42 -28 -30
-382 -0 -0 -0 -0 -0 -0 -0 -0 -0 -0 -0 -175 -133 -64 -72 -69 -70 -64 -58 -72 -77 -134 -227 -214 -0 -181 -85 -252 -247 -261 -194 -163 -151 -128 -107 -111 -111 -107 -92 -72 -55 -43
-480 -266 -0 -0 -0 -0 -0 -0 -0 -0 -0 -0 -180 -76 -75 -78 -74 -75 -69 -73 -74 -80 -91 -172 -159 -178 -188 -156 -202 -211 -206 -174 -205 -147 -115 -101 -91 -87 -92 -96 -128 -129 -107
-510 -151 -0 -0 -0 -0 -0 -0 -0 -0 -0 -201 -112 -80 -105 -121 -106 -108 -122 -108 -139 -93 -96 -94 -127 -127 -104 -196 -200 -175 -155 -148 -143 -136 -164 -125 -133 -115 -87 -74 -115 -156 -146
-386 -0 -0 -0 -0 -0 -0 -0 -0 -121 -433 -259 -141 -106 -127 -117 -104 -126 -158 -124 -0 -0 -51 -140 -88 -91 -131 -87 -81 -83 -0 -0 -109 -177 -160 -163 -140 -115 -131 -95 -80 -103 -101
-379 -0 -0 -0 -0 -0 -0 -0 -428 -269 -185 -141 -84 -76 -119 -123 -127 -170 -207 -0 -0 -0 -0 -148 -137 -75 -69 -108 -65 -13 -77 -0 -145 -191 -212 -191 -130 -152 -136 -99 -84 -66 -86
-379 -430 -0 -0 -0 -0 -0 -0 -291 -162 -98 -92 -76 -75 -77 -111 -124 -176 -0 -0 -0 -0 -182 -178 -132 -66 -68 -76 -86 -53 -39 -25 -123 -74 -310 -302 -297 -278 -156 -156 -112 -87 -89
-405 -395 -403 -23 -0 -0 -2 -366 -255 -154 -125 -112 -99 -66 -53 -79 -129 -196 -231 -202 -191 -222 -194 -159 -89 -61 -80 -80 -49 -30 -50 -48 -102 -0 -0 -0 -324 -299 -229 -135 -86 -74 -57
-405 -401 -385 -373 -342 -372 -398 -368 -314 -207 -156 -128 -115 -100 -77 -73 -92 -135 -166 -184 -198 -192 -187 -128 -101 -84 -60 -49 -33 -95 -114 -181 -231 -184 -0 -0 -0 -384 -197 -114 -128 -117 -52
Wind_Speed
11 10 8 14 19 21 22 17 18 21 24 24 21 21 23 28 27 30 30 30 29 28 28 29 28 28 29 29 29 29 27 25 24 24 25 25 24 23 24 22 19 17 20
4 8 12 17 20 23 22 19 17 19 21 19 18 18 23 26 23 26 28 28 28 29 28 29 29 29 28 28 28 28 26 25 24 24 24 24 23 21 20 21 21 21 21
10 9 14 16 18 22 21 18 18 20 21 19 20 22 19 18 16 15 17 21 25 28 28 28 28 28 27 27 27 27 26 24 23 23 23 22 20 21 20 19 19 20 19
27 12 15 17 19 21 20 16 16 16 15 16 16 16 18 15 11 11 13 14 23 26 27 28 28 26 27 27 26 25 23 22 21 19 20 20 19 20 21 21 19 18 18
14 15 21 18 18 18 18 16 14 14 14 15 16 16 15 15 18 19 21 20 16 19 24 27 27 26 23 24 23 21 20 19 17 17 17 17 18 19 20 19 20 19 19
13 12 13 13 14 13 14 15 14 11 11 13 13 13 12 14 15 19 20 16 18 17 13 5 20 24 17 17 18 18 16 16 15 15 15 16 17 18 19 19 19 19 20
9 7 11 7 12 11 12 11 11 11 9 8 12 11 13 13 12 16 18 17 15 16 15 7 7 12 17 15 15 15 13 13 16 16 16 16 17 17 18 18 18 18 19
5 1 6 10 8 8 12 14 14 8 8 8 8 10 14 14 11 10 19 18 17 16 15 13 10 10 12 14 14 13 11 11 15 16 16 16 16 16 17 17 17 18 18
10 9 2 2 13 11 17 20 17 16 8 6 8 9 10 12 14 14 12 15 17 15 13 13 13 12 13 13 13 12 12 12 12 14 15 15 15 16 17 17 17 17 17
8 7 6 1 3 11 12 19 18 17 12 3 7 10 10 10 11 12 11 12 14 15 14 15 14 15 15 15 14 13 13 12 11 11 12 13 13 14 16 16 17 18 18
9 13 4 3 6 8 4 5 8 13 11 5 6 9 10 11 13 13 13 13 15 16 16 16 16 15 13 12 13 14 14 13 11 11 11 12 12 12 13 15 15 16 19
10 12 9 5 3 6 5 7 7 9 11 8 9 10 11 12 14 16 16 16 17 17 17 17 12 12 16 17 19 21 20 13 9 10 10 10 10 11 12 12 14 16 16
16 13 16 5 10 7 7 8 9 9 9 10 11 11 12 14 16 17 17 17 18 18 18 18 18 17 20 19 17 20 21 22 20 15 8 9 8 9 9 9 11 11 17
31 31 30 19 19 9 9 10 10 11 11 11 11 13 14 16 17 18 19 19 18 19 20 17 16 17 21 23 23 25 25 24 25 22 16 10 7 6 6 5 8 10 11
30 30 29 26 26 25 24 22 15 14 14 13 13 13 14 19 13 15 13 12 14 13 10 14 21 9 11 25 25 24 26 27 26 26 24 17 15 2 3 6 4 7 9
29 29 29 28 27 24 24 23 21 18 16 14 14 14 12 13 13 12 9 10 10 11 12 10 7 6 10 24 20 21 24 27 27 27 27 27 26 23 4 6 6 5 7
27 28 29 28 28 26 25 23 21 19 17 16 15 15 14 13 11 10 9 10 11 11 9 8 19 17 8 21 22 23 22 20 23 29 26 25 27 29 30 30 22 15 8
27 29 29 29 28 27 26 24 22 20 18 16 16 16 16 13 9 8 8 8 8 10 12 8 11 6 10 16 22 23 20 20 19 21 25 27 32 25 28 33 36 29 27
27 28 29 29 28 27 25 24 22 20 18 16 14 13 17 11 8 7 7 7 11 21 14 8 6 8 15 14 18 19 17 20 24 28 29 30 29 20 9 18 31 37 35
26 27 28 29 28 27 24 23 22 20 19 17 15 13 14 6 7 6 6 6 9 9 12 16 15 12 14 17 18 18 16 17 24 24 28 28 28 29 24 26 30 33 34
26 26 26 27 27 26 24 23 21 19 17 14 11 11 8 8 9 10 11 8 8 9 8 14 14 21 21 25 27 29 28 27 24 26 31 28 31 28 30 31 29 30 30
24 24 24 24 24 23 22 20 18 14 13 10 6 6 10 10 11 11 10 10 11 10 12 14 22 24 25 24 27 27 27 29 22 38 28 34 32 33 37 33 35 32 27
23 22 22 22 21 20 19 16 13 11 6 5 5 10 13 15 16 14 12 12 13 12 12 12 16 17 21 23 22 23 28 28 38 26 34 29 35 39 38 39 39 37 34
22 20 21 20 21 20 18 16 13 13 12 4 11 18 20 17 17 15 12 11 11 12 13 16 18 19 19 23 23 21 23 28 39 45 34 40 38 39 37 38 38 40 38
20 21 21 19 19 21 19 17 11 13 11 3 5 20 24 21 19 15 10 9 8 11 16 21 24 25 27 27 26 28 29 29 30 37 52 48 43 41 38 36 36 36 39
22 21 20 20 19 17 17 14 13 12 10 3 0 3 19 22 22 17 15 15 14 16 20 23 26 28 27 24 28 27 27 30 36 38 43 48 49 46 39 38 37 35 34
Wind_Direction
188 177 81 69 69 71 70 69 71 73 76 75 71 69 70 83 79 95 96 99 96 111 109 104 107 108 104 106 109 107 112 116 119 121 114 116 126 134 132 146 159 170 152
184 186 64 69 72 74 72 71 69 69 71 68 64 62 68 77 68 79 89 83 86 106 109 99 102 101 106 108 113 112 115 116 119 118 117 120 125 143 148 145 149 148 148
72 65 65 70 71 75 73 70 68 68 68 66 64 68 59 54 47 43 46 58 70 90 101 101 103 106 108 110 112 114 117 116 120 122 116 123 132 134 148 157 158 156 165
162 102 70 72 72 73 72 66 63 61 57 55 54 52 55 44 25 23 28 33 64 81 100 91 105 116 108 107 115 118 124 126 124 128 128 125 134 138 136 143 153 163 167
184 78 81 73 71 69 69 63 57 55 52 49 50 48 45 41 52 55 61 57 40 47 73 82 91 116 127 116 113 127 129 136 142 133 135 134 133 139 142 147 149 155 162
76 76 75 68 65 61 60 59 55 48 43 43 41 36 30 35 42 54 53 39 46 39 23 323 49 108 153 152 140 139 143 137 150 159 150 144 139 140 140 145 149 153 154
66 67 69 66 65 59 56 53 51 45 32 23 31 26 32 34 28 41 49 41 32 38 33 248 286 194 150 160 157 148 159 162 127 143 155 156 154 153 141 144 150 159 156
69 230 62 64 58 53 52 55 51 37 30 15 5 15 36 36 20 14 60 50 40 30 25 1 312 256 202 173 168 170 184 190 143 128 132 143 156 167 164 155 155 155 160
212 209 241 48 65 55 63 64 56 53 24 1 3 6 9 16 33 28 11 33 45 17 344 335 328 263 216 215 203 193 201 203 153 139 134 134 149 168 170 174 172 166 170
217 228 226 11 28 42 44 59 51 52 34 327 351 4 360 358 359 355 329 311 346 349 325 313 298 297 250 231 216 215 208 199 173 152 153 152 146 154 172 173 182 187 181
226 222 237 235 25 23 345 339 358 34 26 309 319 345 339 350 357 345 317 309 332 338 330 305 293 267 121 103 186 216 224 200 169 171 160 166 156 148 157 173 175 180 194
228 226 221 240 298 11 323 260 313 2 359 317 293 302 306 326 352 10 345 337 354 349 315 280 172 166 286 353 336 327 329 296 157 182 164 149 152 156 162 168 175 187 183
209 224 214 246 237 269 305 281 257 304 300 289 289 304 318 337 345 349 341 336 344 312 326 346 349 357 325 338 2 343 335 332 341 358 153 157 135 151 160 161 171 173 195
161 167 180 217 212 228 264 260 277 267 279 304 289 311 326 331 332 351 347 345 356 342 326 2 5 2 338 318 321 310 312 324 314 328 349 14 31 158 162 160 167 180 183
157 161 158 148 152 148 155 156 213 230 221 236 281 256 285 347 29 31 56 55 34 31 41 13 347 357 32 312 316 324 317 304 305 308 316 336 341 200 191 198 192 190 194
161 164 167 163 163 158 164 168 174 194 204 213 221 223 224 238 235 211 163 176 174 194 197 180 137 102 303 285 257 266 277 303 301 309 304 307 315 321 255 236 229 232 216
160 165 168 168 171 173 174 177 185 196 206 213 217 224 231 225 206 186 170 201 203 203 171 108 352 17 46 268 262 266 262 249 257 289 320 323 317 309 304 302 306 226 240
156 162 166 167 169 171 174 184 188 191 198 211 221 239 239 234 199 168 153 157 163 192 210 178 223 180 240 251 270 265 253 253 246 250 258 264 298 309 310 294 279 253 241
158 163 169 171 172 175 177 181 184 191 201 202 202 215 238 213 187 128 148 141 39 321 232 203 157 207 256 262 265 261 249 257 267 284 281 295 313 339 347 240 257 283 291
155 160 167 171 175 179 183 188 196 204 212 213 210 208 221 136 85 97 90 113 43 31 198 258 251 244 258 276 276 272 263 261 330 331 323 328 331 327 334 326 315 304 301
158 158 164 168 173 174 179 184 190 196 204 200 191 191 187 74 66 52 41 48 47 60 130 219 239 286 291 350 344 328 336 345 347 352 336 342 336 338 330 324 325 321 317
158 160 163 168 171 174 176 178 179 176 184 178 134 122 52 51 44 41 58 61 41 44 36 24 338 320 337 347 344 349 349 344 355 320 344 333 332 329 322 324 318 320 323
156 155 158 161 164 166 167 168 165 164 136 121 72 26 20 13 17 29 42 44 35 41 37 31 16 13 2 353 1 356 346 345 330 347 335 342 332 325 322 315 310 311 312
158 156 162 162 168 168 167 170 172 181 184 106 4 344 340 356 1 11 29 33 39 30 18 5 360 359 3 355 356 356 349 341 329 319 330 324 329 327 325 321 315 306 306
160 164 166 166 169 179 177 175 170 184 186 139 21 329 321 335 348 2 16 22 19 359 345 340 338 335 331 337 341 341 340 338 336 329 311 319 324 321 322 323 321 315 306
167 169 170 173 175 179 181 180 181 182 191 188 170 160 332 330 331 343 349 349 349 339 333 335 331 330 333 336 330 334 335 335 331 330 325 322 319 318 322 320 317 316 314